Guymon, OK

4:31 AM CDT on April 25, 2017 (GMT -0500)
Guymon Municipal

Weather History for KGUY - June, 2014

Change the Weather History Date:

Tuesday, June 10, 2014

  Actual Average Record
Temperature  
Mean Temperature 67 °F 72 °F  
Max Temperature 84 °F 86 °F 106 °F (2013)
Min Temperature 50 °F 59 °F 50 °F (2014)
Degree Days  
Heating Degree Days 0 0  
Month to date heating degree days 5 6  
Since 1 June heating degree days 5 6  
Since 1 July heating degree days 4537 4455  
Cooling Degree Days 2 8  
Month to date cooling degree days 82 68  
Year to date cooling degree days 260 176  
Since 1 June cooling degree days 82 68  
Growing Degree Days 16 (Base 50)    
Moisture  
Dew Point 50 °F    
Average Humidity 61    
Maximum Humidity 93    
Minimum Humidity 28    
Precipitation  
Precipitation 0.00 in 0.12 in 0.78 in (1999)
Month to date precipitation 1.48 1.21  
Year to date precipitation 4.87 7.46  
Snow  
Snow 0.00 in - - ()
Month to date snowfall 0.0  
Since 1 June snowfall 0.0  
Since 1 July snowfall 16.2  
Snow Depth 0.00 in    
Sea Level Pressure  
Sea Level Pressure 29.87 in    
Wind  
Wind Speed 7 mph (West)    
Max Wind Speed 15 mph    
Max Gust Speed 19 mph    
Visibility 10 miles    
Events      
T = Trace of Precipitation, MM = Missing Value Source: NWS Daily Summary

Daily Weather History Graph

Daily Weather History Graph

Search for Another Location

Airport or City:

Trip Planner

Search our weather history database for the weather conditions in past years. The results will help you decide how hot, cold, wet, or windy it might be!

Date:

Astronomy

Jun. 10, 2014 Rise Set
Actual Time 6:26 AM CDT 9:04 PM CDT
Civil Twilight 5:56 AM CDT 9:34 PM CDT
Nautical Twilight 5:18 AM CDT 10:12 PM CDT
Astronomical Twilight 4:36 AM CDT 10:55 PM CDT
Moon 6:35 PM CDT (6/10) 4:29 AM CDT (6/10)
Length of Visible Light 15h 38m
Length of Day
14h 37m
Waxing Gibbous, 92% of the Moon is Illuminated
Jun 10
Waxing Gibbous
Jun 12
Full
Jun 19
Last Quarter
Jun 27
New
Jul 5
First Quarter

Hourly Weather History & Observations

Time (CDT) Temp. Heat Index Dew Point Humidity Pressure Visibility Wind Dir Wind Speed Gust Speed Precip Events Conditions
12:53 AM 54.0 °F - 50.0 °F 86% 29.93 in 10.0 mi North 12.7 mph - N/A   Clear
1:53 AM 53.1 °F - 50.0 °F 89% 29.94 in 10.0 mi WNW 6.9 mph - N/A   Clear
2:53 AM 53.1 °F - 48.9 °F 86% 29.95 in 10.0 mi NNW 11.5 mph - N/A   Clear
3:53 AM 51.1 °F - 48.9 °F 92% 29.94 in 10.0 mi NNW 11.5 mph - N/A   Clear
4:53 AM 51.1 °F - 48.0 °F 89% 29.94 in 10.0 mi NW 11.5 mph - N/A   Clear
5:53 AM 50.0 °F - 46.9 °F 89% 29.95 in 10.0 mi WNW 5.8 mph - N/A   Clear
6:53 AM 50.0 °F - 48.0 °F 93% 29.96 in 10.0 mi WNW 4.6 mph - N/A   Clear
7:53 AM 53.1 °F - 48.9 °F 86% 29.96 in 10.0 mi NW 8.1 mph - N/A   Clear
10:53 AM 66.0 °F - 51.1 °F 59% 29.94 in 10.0 mi NNW 5.8 mph - N/A   Clear
11:53 AM 69.1 °F - 51.1 °F 53% 29.92 in 10.0 mi Variable 4.6 mph - N/A   Clear
12:53 PM 70.0 °F - 50.0 °F 49% 29.90 in 10.0 mi Calm Calm - N/A   Clear
2:53 PM 77.0 °F - 53.1 °F 43% 29.85 in 10.0 mi SW 8.1 mph - N/A   Clear
4:53 PM 82.0 °F 81.2 °F 53.1 °F 37% 29.79 in 10.0 mi SE 10.4 mph - N/A   Clear
5:53 PM 82.9 °F - 48.9 °F 31% 29.77 in 10.0 mi South 8.1 mph - N/A   Clear
6:53 PM 82.9 °F - 46.9 °F 28% 29.75 in 10.0 mi South 9.2 mph - N/A   Clear
7:53 PM 80.1 °F - 51.1 °F 36% 29.75 in 10.0 mi South 9.2 mph - N/A   Clear
8:53 PM 73.0 °F - 54.0 °F 51% 29.76 in 10.0 mi South 6.9 mph - N/A   Clear
10:53 PM 68.0 °F - 55.0 °F 63% 29.77 in 10.0 mi South 6.9 mph - N/A   Clear
11:53 PM 64.9 °F - 55.0 °F 70% 29.78 in 10.0 mi South 8.1 mph - N/A   Clear